Regional Weather Roundup
Issued by NWS Albany, NY

Home | Current Version | Previous Version | Graphics & Text | Print | Product List | Glossary On
Versions: 1 2 3 4 5 6 7 8 9 10 11 12 13 14 15 16 17 18 19 20 21 22 23 24 25 26 27 28 29 30 31 32 33 34 35 36 37 38 39 40 41 42 43 44 45 46 47 48 49 50
000
ASUS41 KALY 271210
RWRALY

NEW YORK STATE HOURLY WEATHER ROUNDUP
NATIONAL WEATHER SERVICE ALBANY NY
800 AM EDT WED AUG 27 2014

NOTE: "FAIR" INDICATES FEW OR NO CLOUDS BELOW 12,000 FEET WITH NO
SIGNIFICANT WEATHER AND/OR NO OBSTRUCTIONS TO VISIBILITY.

NYZ032-033-038>043-046>054-057>066-NYZ062>081-271300-
EAST


CITY           SKY/WX    TMP DP  RH WIND       PRES   REMARKS
ALBANY         MOSUNNY   70  63  78 S6        30.01S
GLENS FALLS    MOSUNNY   68  62  81 S5        29.98S
POUGHKEEPSIE   SUNNY     71  64  78 VRB3      30.01F
NEWBURGH       SUNNY     68  64  88 W7        30.06R
MONTGOMERY     PTSUNNY   67  63  87 S6        30.04S
WHITE PLAINS   SUNNY     71  64  78 W3        30.05R
ISLIP          MOSUNNY   72  63  73 S5        30.04R
NEW YORK CITY  MOSUNNY   75  63  66 SW3       30.04R
CENTRAL PARK   SUNNY     74  62  66 CALM      30.07R
$$

NYZ005>009-017-018-044>046-055-056-271300-
CENTRAL


CITY           SKY/WX    TMP DP  RH WIND       PRES   REMARKS
FULTON         CLOUDY    70  66  87 W3        30.02R
SYRACUSE       CLOUDY    73  67  81 W7        30.01S
ROME           CLOUDY    69  64  84 CALM      30.03R
ELMIRA         MOSUNNY   66  63  90 CALM      30.05S
BINGHAMTON     MOSUNNY   68  59  73 SW7       30.07S
MONTICELLO     MOSUNNY   63  61  94 CALM      30.09S
$$

NYZ026>034-041>043-271300-
NORTH


CITY           SKY/WX    TMP DP  RH WIND       PRES   REMARKS
WATERTOWN      CLOUDY    72  62  71 NW7       29.99S
FORT DRUM      NOT AVBL
MASSENA        SUNNY     68  62  81 W7        29.98R
SARANAC LAKE   PTSUNNY   65  63  93 SW7       30.00S
PLATTSBURGH    MOSUNNY   75  65  70 CALM      29.94R
$$

NYZ001>004-010>016-019>021-271300-
WEST


CITY           SKY/WX    TMP DP  RH WIND       PRES   REMARKS
NIAGARA FALLS  PTSUNNY   68  60  75 N6        30.05R
BUFFALO        PTSUNNY   70  60  70 NW5       30.06R
DUNKIRK        CLOUDY    71  65  81 VRB7      30.07R
JAMESTOWN      CLOUDY    68  66  94 W3        30.10F VSB 1/2
WELLSVILLE     CLOUDY    66  64  93 W9        30.12S
ROCHESTER      CLOUDY    71  66  84 NW7       30.04R
PENN YAN       CLOUDY    73  66  78 W5        30.05S
$$

             KEY
       WCI = WIND CHILL INDEX
       VSB = VISIBILITY
       HX  = HEAT INDEX
$$



USA.gov is the U.S. government's official web portal to all federal, state and local government web resources and services.